Theta_e
315 311 306 304 302 302 302 302 304 301 299 299 299 299 299 298 298 297 297 298 301 301 300 300 299 298 295 292 290 289 289 288 288 288 288 288 288 289
314 312 308 303 302 302 301 302 302 302 302 301 300 301 300 299 298 298 297 298 301 301 300 299 298 297 295 292 290 289 288 288 287 287 287 286 286 286
314 313 309 304 302 302 302 302 301 301 302 302 301 301 300 300 299 299 297 298 299 300 299 299 298 296 294 291 290 289 288 287 287 287 287 286 286 286
315 312 310 307 304 302 302 302 302 301 302 302 302 301 301 300 299 298 297 297 298 299 299 298 297 296 294 291 289 288 287 287 287 286 286 286 285 285
318 314 310 308 307 304 302 302 302 301 301 303 303 302 301 301 300 299 298 296 296 298 298 296 295 296 293 290 288 287 287 287 286 286 286 285 285 285
320 319 313 309 308 306 302 303 303 302 301 303 303 303 302 301 300 299 298 297 296 297 297 296 296 295 292 289 288 287 287 286 286 286 285 285 285 285
320 319 316 312 308 305 302 303 303 302 302 302 303 303 303 302 302 300 298 296 296 297 296 295 295 295 292 289 287 287 287 286 285 285 285 285 284 284
320 319 317 313 308 303 301 303 303 302 302 302 302 302 302 302 301 300 298 297 296 296 296 296 297 295 291 288 287 287 286 285 285 285 285 284 284 284
321 319 318 314 307 301 301 302 301 301 300 300 300 301 301 301 301 300 299 296 295 296 296 296 297 293 289 288 287 286 286 285 285 285 284 284 283 283
321 319 318 314 307 301 302 302 301 301 300 301 301 300 300 299 299 299 298 296 294 295 295 298 296 291 289 287 287 286 286 285 285 284 284 283 283 283
321 318 319 316 308 300 302 301 301 300 300 302 302 300 299 299 299 298 297 295 295 295 296 297 293 291 288 287 286 286 285 285 285 284 284 283 282 282
319 317 318 317 310 300 301 301 301 300 301 304 302 300 299 298 298 297 294 295 295 295 297 295 293 288 287 287 285 285 285 284 284 284 283 283 282 282
318 317 317 311 307 300 301 301 301 302 304 303 301 300 298 297 298 296 294 294 294 296 296 295 290 287 287 285 285 285 284 284 284 284 283 283 282 282
319 318 317 313 301 300 301 301 302 303 303 303 302 300 302 302 295 294 294 294 295 296 296 292 288 287 286 285 285 284 284 284 284 283 283 282 282 282
317 316 316 310 300 302 301 303 304 304 304 304 305 305 300 294 293 293 293 293 295 296 294 289 288 286 285 285 284 284 285 284 283 283 283 282 282 282
316 315 306 301 301 303 304 305 305 305 305 306 306 302 294 293 292 292 293 295 295 295 291 289 286 285 285 284 284 284 283 282 282 282 283 282 282 282
314 313 307 302 301 304 306 307 307 307 305 304 302 297 293 293 292 292 293 294 295 292 289 287 286 285 285 284 284 283 282 282 281 281 282 283 281 282
313 312 305 303 304 306 308 307 308 305 304 303 299 295 295 292 291 292 294 295 294 290 289 286 285 285 284 284 283 282 282 281 281 281 281 282 282 281
313 312 309 307 307 308 308 309 308 305 302 300 296 296 293 291 291 293 294 294 291 290 286 285 285 284 284 283 282 281 281 281 281 281 281 280 280 281
312 311 311 310 309 309 309 308 306 302 300 296 298 298 291 290 292 293 294 292 290 287 285 284 284 284 283 282 282 281 279 280 280 280 280 280 280 280
311 310 310 310 309 309 308 306 304 302 301 300 299 292 289 292 292 293 293 291 288 285 284 284 284 283 282 282 282 281 281 279 279 279 279 279 279 279
310 309 309 309 309 308 306 304 303 302 301 299 293 289 293 291 293 293 292 288 285 284 284 283 283 282 281 281 280 280 281 281 281 279 279 279 278 278
309 309 309 308 307 305 303 302 301 300 298 294 290 293 290 291 292 291 288 285 284 283 283 283 282 281 280 280 279 279 280 280 280 280 280 279 279 279
Wind_Speed
31 39 28 23 14 16 14 18 22 23 28 25 22 22 19 17 15 12 10 8 5 3 4 8 11 15 15 14 13 14 14 16 16 17 17 18 20 21
32 37 35 23 18 14 16 16 20 17 20 23 25 23 21 19 17 14 12 9 7 5 4 6 11 13 15 14 13 14 15 15 16 16 17 19 21 22
34 36 38 26 18 15 15 17 20 19 13 20 23 20 23 21 18 15 13 11 9 7 5 6 10 13 14 14 14 14 14 15 15 16 17 20 22 23
34 36 38 37 23 15 15 17 18 21 15 12 18 25 23 22 19 17 15 13 11 9 6 6 9 13 15 14 14 13 14 15 15 16 18 21 23 24
31 35 37 38 32 22 16 18 19 21 18 11 12 21 23 23 22 20 17 15 13 9 8 7 9 13 14 14 13 14 15 15 14 16 19 21 23 25
30 32 34 35 33 28 20 18 19 21 18 13 12 17 22 22 22 20 19 16 13 11 9 7 9 13 14 14 14 14 15 14 14 17 20 22 24 26
34 33 32 31 29 28 21 20 19 21 19 14 12 14 18 21 21 21 20 17 14 13 8 7 9 13 14 13 13 14 14 14 15 18 21 23 24 27
37 33 33 30 29 28 22 19 16 21 16 13 12 12 14 17 18 20 18 17 15 12 9 7 10 13 13 13 13 15 14 14 16 20 23 24 25 28
40 34 34 34 32 31 24 20 21 19 14 9 10 10 11 11 15 18 17 16 14 8 6 7 11 12 11 11 13 15 13 13 18 22 25 26 26 29
41 37 34 35 36 33 27 25 25 21 18 15 13 12 12 12 13 14 12 15 13 10 8 8 10 11 10 11 13 13 10 15 19 23 25 27 28 29
43 40 34 34 36 34 30 29 27 23 19 17 14 13 13 13 14 16 18 14 13 9 7 9 9 10 9 10 10 8 10 15 19 24 25 27 30 31
45 42 35 34 36 37 31 29 28 23 20 16 14 13 12 12 12 14 13 13 12 9 7 8 9 7 6 6 8 11 11 14 20 22 24 28 31 33
44 43 39 39 37 36 31 28 24 21 18 16 13 12 11 11 11 16 16 13 11 8 8 10 8 7 6 7 9 10 10 16 19 20 26 28 30 33
45 42 37 38 37 34 31 27 23 20 18 16 14 12 11 13 18 16 14 12 10 8 8 8 6 7 7 9 8 10 14 17 19 22 29 30 29 30
41 38 37 38 38 33 31 28 25 24 19 19 15 11 14 17 16 15 13 11 8 7 8 6 7 7 8 9 10 12 16 19 19 25 26 29 32 33
40 39 41 42 39 36 33 29 27 21 19 19 13 13 19 18 16 14 12 10 7 8 7 6 5 7 9 9 10 13 16 16 21 23 24 27 28 29
42 42 44 44 42 41 38 36 31 28 26 20 16 19 20 17 18 14 12 8 8 8 6 6 6 8 9 10 10 13 14 19 23 26 29 30 28 29
41 46 47 49 46 43 40 36 30 27 24 20 20 20 18 20 17 14 12 9 8 7 6 5 6 8 9 10 12 12 15 20 23 26 28 32 32 28
40 38 43 43 42 39 36 30 29 27 23 20 22 22 21 21 17 15 12 9 8 7 6 5 6 7 8 9 11 12 19 22 25 27 29 30 31 29
38 36 35 41 40 36 34 32 29 27 25 26 27 22 23 19 16 16 10 9 9 7 5 5 6 7 7 10 13 14 18 22 26 28 30 31 30 26
32 29 36 38 35 35 33 31 28 28 27 25 22 22 23 18 18 13 11 10 8 7 6 6 6 7 9 10 12 13 15 19 24 26 29 31 33 32
31 29 30 31 33 34 32 31 30 29 25 24 24 25 21 19 15 13 12 9 9 8 7 6 5 7 10 11 13 14 16 17 19 19 20 23 27 25
32 32 33 32 31 31 30 30 29 26 24 25 28 24 22 18 15 14 12 10 9 7 6 5 6 7 10 12 14 16 19 21 23 22 18 19 22 23
Wind_Direction
205 205 201 205 203 201 209 217 213 192 200 205 203 204 203 204 208 208 211 217 232 280 339 360 8 6 5 5 5 1 360 2 3 2 2 4 3 0
203 204 204 203 203 196 199 200 213 219 208 210 209 209 206 208 211 212 215 222 235 258 309 347 2 1 2 0 357 355 358 359 2 360 360 359 358 354
202 203 205 204 200 201 201 198 206 213 219 217 215 210 209 211 214 216 220 224 234 253 286 330 352 357 355 352 350 348 356 0 359 354 354 356 353 350
201 203 206 208 207 206 206 207 208 211 216 222 217 212 210 210 213 217 221 227 233 248 275 316 342 348 348 344 345 346 355 356 352 351 353 353 351 349
202 206 207 209 213 214 213 212 211 210 211 226 229 214 211 211 214 216 220 225 233 248 273 303 332 341 339 338 336 346 350 347 346 349 351 348 347 347
203 207 210 211 212 212 216 215 212 207 206 217 215 214 213 213 215 220 222 226 231 244 260 297 319 330 333 329 334 340 339 339 345 348 348 345 344 343
204 207 210 212 213 212 219 219 214 202 203 213 218 215 213 215 220 221 220 223 229 240 258 287 308 322 320 321 328 331 331 335 342 342 344 344 341 339
207 205 206 208 210 208 215 214 221 199 206 215 217 221 223 224 224 224 225 226 231 241 256 276 308 316 316 317 322 322 323 332 335 338 342 341 339 337
208 207 203 205 205 206 208 204 197 194 200 212 222 226 226 230 231 227 226 229 229 235 250 281 311 312 313 311 313 311 313 328 333 336 337 336 337 336
211 208 208 204 204 204 203 197 193 198 206 212 215 215 212 214 224 232 233 225 226 235 251 289 309 313 311 309 305 305 308 322 328 335 333 334 336 336
208 205 206 208 206 201 200 199 198 203 209 216 223 226 227 223 217 217 219 215 223 233 255 292 306 310 307 305 307 321 312 317 328 330 331 335 336 336
207 203 204 207 208 201 201 204 205 207 212 218 222 227 226 226 219 214 215 220 226 232 263 296 306 315 304 302 325 322 315 321 326 327 331 337 338 338
206 202 201 201 204 203 205 206 209 210 208 207 207 216 217 216 231 216 207 216 225 241 284 301 306 300 303 310 319 313 315 321 325 328 334 341 343 340
203 203 200 199 200 199 200 201 201 199 197 198 199 202 225 237 214 204 210 217 228 256 294 297 292 302 318 319 321 315 319 323 329 337 340 340 341 341
199 200 198 193 194 193 197 197 196 198 201 204 207 224 232 213 207 207 209 217 230 276 294 288 302 317 321 317 316 315 323 330 334 338 337 341 345 343
192 194 188 185 188 190 193 196 196 201 219 221 218 219 215 206 203 208 211 216 253 284 283 285 305 316 316 318 317 317 323 327 329 334 341 344 349 347
189 188 188 186 187 190 194 194 197 206 211 207 209 212 203 207 205 207 206 227 264 271 267 283 303 309 315 316 314 319 324 329 334 340 343 345 354 350
191 190 187 190 194 194 195 193 203 206 205 205 202 205 214 210 207 204 211 236 259 253 263 270 294 308 310 310 319 322 327 330 339 345 342 342 348 354
197 200 193 197 199 198 194 204 213 207 207 205 196 210 204 204 197 211 222 245 242 249 249 275 296 304 312 320 326 328 332 337 342 344 341 343 344 353
189 190 196 200 194 199 207 208 206 202 203 203 210 206 200 199 213 213 229 233 239 229 245 270 287 297 308 324 332 337 338 340 342 343 341 339 339 349
190 202 205 202 205 205 206 208 203 207 213 215 208 193 194 207 206 217 226 227 220 227 245 268 283 293 306 321 327 333 343 342 342 343 339 337 340 343
202 205 205 207 209 210 210 207 205 207 209 203 196 191 202 200 212 221 218 210 213 224 244 258 277 296 312 322 325 334 339 338 338 344 342 342 343 336
208 210 214 216 215 211 208 206 206 206 203 194 193 197 191 207 208 205 203 206 216 230 241 257 281 306 314 321 330 338 339 338 340 345 354 342 340 344